Das Wetter in  D-61279 Heinzenberg / Taunus





Wetter Minimum- & Maximum-Werte im Oktober 2012

Standort: Heinzenberg / Taunus - Höhe 297 m         8 24' 1" Ost 50 21' 51" Nord
(   3-stündige Aktualisierung    letzte Aktualisierung um 19:04 am 31.10.2012  )


Messgrösse

Minimum

Maximum

Durchschnitt

Temperatur West /
Luftfeuchte West
Anklicken für Monats-Diagramm

-6,1 C

07:33
29.10.2012

47 %

16:58
01.10.2012

22,2 C

15:01
20.10.2012

91 %

10:00
25.10.2012

Temp

8,6 C

Feuchte

80 %

Temperatur Ost /
Luftfeuchte Ost
Anklicken für Monats-Diagramm

-5,8 C

07:23
29.10.2012

--

--
--

22,6 C

14:31
20.10.2012

--

--
--

8,8 C

--

Luftdruck Anklicken für Monats-Diagramm

995,2 hPa

03:46
15.10.2012

1026,2 hPa

10:03
23.10.2012

1013,6 hPa

Taupunkt

-8,2 C

07:33
29.10.2012

14,1 C

13:06
20.10.2012

5,3 C

Windchill
( gefühlte Temperatur )

-10,3 C

09:53
29.10.2012

22,2 C

15:36
20.10.2012

6,8 C

Windgeschwindigkeit /
Windrichtung
Anklicken für Monats-Diagramm

---

51,9 km/h / SW

13:06
04.10.2012

7,0 km/h
SW

Helligkeit /
Sonnenschein
Anklicken für Monats-Diagramm
Anklicken für Monats-Diagramm

Sonnenschein:

110:59 Stunden

Max: 9:50 Std am
01.10.2012

86,3 klux

11:50
03.10.2012

18,4 klux

Solarstrahlung Anklicken für Monats-Diagramm

---

590 W/m

11:50
03.10.2012

138 W/m

Regenmenge
    Oktober 2012
Anklicken für Monats-Diagramm

Insgesamt 59,0 l/m

in 81:56 Stunden
an 18 Tagen

11,2 l/m

10:36
26.10.2012

Gesamtmenge

59,0 l/m

Regen-Tage
    Oktober 2012
Anklicken für Monats-Diagramm

>   0 mm/Tag

>   2 mm/Tag

>   5 mm/Tag

> 10 mm/Tag

> 20 mm/Tag

18 Tage     
9 Tage     
6 Tage     
  1 Tag     
0 Tage     

Eisige Tage Oktober 2012 / 2011

Tmin ≤ -10C     

0 Tage

/

0 Tage

Eistage Oktober 2012 / 2011

Tmax <     0C     

0 Tage

/

0 Tage

Frosttage Oktober 2012 / 2011

Tmin ≤     0C     

4 Tage

/

5 Tage

Kalte Tage Oktober 2012 / 2011

Tmax <   10C     

8 Tage

/

2 Tage

Warme Tage Oktober 2012 / 2011

Tmax ≥   20C     

4 Tage

/

4 Tage

Sommertage Oktober 2012 / 2011

Tmax ≥   25C     

0 Tage

/

2 Tage

Heisse Tage Oktober 2012 / 2011

Tmax ≥   30C     

0 Tage

/

0 Tage


Monatsdiagramm Oktober 2012

Die Kurven zeigen den Durchschnittswert des jeweiligen Tages an


Wetter-Monatsübersicht Oktober 2012
Datum
  Temperatur
   Luftdruck
   Wind
  Regen
   Luftfeuchte
   Helligkeit

Sonnen-
schein


Temp.

Min.
Temp.

Max.
Temp.


Luftdruck

Min.
Luftdruck

Max.
Luftdruck

-Geschw.
Haupt-Richtg.

Max.
Wind

Menge /
Dauer


Feuchte

Min.
Feuchte

Max.
Feuchte


Helligkeit

Max.
Helligkeit

1.
Oktober
9,9 C2,6 C
08:13
19,6 C
16:58
1018,7 hPa1015,7 hPa
16:58
1021,5 hPa
01:33
4,0 km/h
W-SW
24,1 km/h
12:23  
---
71 %47 %
16:58
84 %
09:38
35,1 klux59,9 klux
13:08
9:50 Std 
2.
Oktober
11,6 C5,4 C
05:39
18,3 C
15:54
1017,5 hPa1015,9 hPa
15:54
1019,0 hPa
09:54
8,3 km/h
SW
33,1 km/h
14:04  
0,9 l/m
1:51 Stunden
73 %59 %
15:49
84 %
08:24
25,5 klux71,0 klux
13:59
3:35 Std 
3.
Oktober
13,9 C11,8 C
06:00
16,5 C
15:40
1014,0 hPa1011,1 hPa
22:15
1016,5 hPa
01:00
14,4 km/h
SW
38,3 km/h
17:00  
0,2 l/m
25 Minuten
75 %64 %
15:35
83 %
03:20
15,3 klux86,3 klux
11:50
1:30 Std 
4.
Oktober
11,3 C7,6 C
21:46
13,6 C
00:01
1010,9 hPa1005,1 hPa
12:26
1018,2 hPa
22:52
21,0 km/h
SW
51,9 km/h
13:06  
5,2 l/m
6:25 Stunden
83 %73 %
17:46
89 %
14:26
11,2 klux58,4 klux
15:31
2:05 Std 
5.
Oktober
12,3 C6,9 C
01:27
16,4 C
17:57
1013,5 hPa1010,9 hPa
17:22
1018,3 hPa
01:27
20,1 km/h
SW
46,6 km/h
15:22  
2,3 l/m
2:30 Stunden
81 %74 %
18:07
89 %
10:27
8,6 klux30,5 klux
14:52
10 Min 
6.
Oktober
13,6 C9,4 C
22:54
17,8 C
13:18
1012,4 hPa1009,7 hPa
12:33
1015,9 hPa
23:49
14,4 km/h
SW
41,9 km/h
14:13  
5,8 l/m
6:31 Stunden
81 %66 %
13:38
89 %
23:19
13,1 klux61,9 klux
12:28
35 Min 
7.
Oktober
9,5 C4,1 C
23:55
14,5 C
15:49
1018,9 hPa1013,9 hPa
02:59
1024,9 hPa
23:55
4,7 km/h
W-NW
24,0 km/h
15:34  
6,2 l/m
5:45 Stunden
79 %59 %
15:54
90 %
02:34
31,8 klux78,1 klux
13:09
6:40 Std 
8.
Oktober
6,8 C0,8 C
07:45
13,0 C
15:00
1020,6 hPa1012,9 hPa
23:01
1026,1 hPa
03:00
3,2 km/h
O-SO
25,3 km/h
13:35  
0,2 l/m
25 Minuten
77 %60 %
12:45
88 %
09:45
27,0 klux61,8 klux
14:15
5:25 Std 
9.
Oktober
9,3 C3,7 C
23:52
15,0 C
15:26
1013,4 hPa1009,8 hPa
04:41
1017,7 hPa
23:52
3,1 km/h
NW
22,3 km/h
14:26  
1,2 l/m
2:15 Stunden
78 %58 %
15:31
90 %
08:01
23,3 klux66,5 klux
12:46
3:55 Std 
10.
Oktober
5,8 C1,2 C
08:47
12,6 C
15:47
1016,6 hPa1014,5 hPa
16:37
1017,9 hPa
04:22
1,0 km/h
N-NO
13,6 km/h
13:42  
---
76 %56 %
15:52
87 %
09:52
28,8 klux67,5 klux
13:07
6:35 Std 
11.
Oktober
6,4 C-0,4 C
07:38
13,0 C
15:08
1013,3 hPa1008,9 hPa
23:29
1018,0 hPa
01:18
4,6 km/h
O-SO
29,0 km/h
12:48  
---
75 %61 %
12:58
87 %
09:23
25,3 klux55,4 klux
13:18
5:10 Std 
12.
Oktober
9,5 C5,6 C
01:39
13,5 C
14:54
1008,8 hPa1005,5 hPa
07:14
1015,1 hPa
23:44
9,7 km/h
W-SW
50,4 km/h
17:09  
3,5 l/m
4:55 Stunden
83 %76 %
20:44
89 %
12:04
8,1 klux30,3 klux
12:24
25 Min 
13.
Oktober
9,1 C5,8 C
08:09
12,8 C
15:04
1011,4 hPa1005,4 hPa
20:49
1015,2 hPa
05:19
14,9 km/h
SW
32,4 km/h
18:59  
2,6 l/m
1:46 Stunden
75 %65 %
15:14
86 %
23:35
21,9 klux60,2 klux
14:49
3:54 Std 
14.
Oktober
7,6 C6,0 C
07:25
9,6 C
12:50
1002,8 hPa997,4 hPa
22:15
1006,8 hPa
00:00
8,6 km/h
SW
27,6 km/h
02:15  
7,9 l/m
7:21 Stunden
83 %75 %
12:05
88 %
20:54
10,8 klux54,5 klux
11:25
50 Min 
15.
Oktober
7,1 C4,9 C
06:06
9,3 C
03:46
1005,0 hPa995,2 hPa
03:46
1012,2 hPa
22:32
10,5 km/h
SW
37,3 km/h
04:16  
2,0 l/m
3:35 Stunden
87 %83 %
14:06
90 %
02:51
8,9 klux78,8 klux
13:16
10 Min 
16.
Oktober
7,0 C3,5 C
07:57
9,6 C
15:12
1011,3 hPa1009,7 hPa
15:12
1013,1 hPa
23:38
9,0 km/h
SW
32,8 km/h
11:42  
---
81 %70 %
13:57
87 %
02:47
15,0 klux48,6 klux
12:07
3:10 Std 
17.
Oktober
9,4 C2,6 C
06:33
15,0 C
17:53
1012,0 hPa1010,0 hPa
17:53
1014,6 hPa
04:23
5,5 km/h
O-SO
27,1 km/h
13:53  
---
81 %71 %
13:43
90 %
07:03
10,5 klux49,0 klux
12:53
55 Min 
18.
Oktober
16,3 C12,8 C
09:19
21,2 C
15:24
1011,8 hPa1010,4 hPa
16:39
1013,4 hPa
23:55
12,5 km/h
SW
44,0 km/h
12:19  
---
64 %50 %
15:19
76 %
23:25
27,6 klux58,6 klux
13:04
6:05 Std 
19.
Oktober
14,1 C8,7 C
06:00
21,2 C
15:20
1014,4 hPa1012,5 hPa
14:45
1016,8 hPa
23:56
2,4 km/h
O-SO
19,9 km/h
12:05  
---
74 %58 %
15:20
86 %
06:45
27,5 klux47,7 klux
12:35
9:05 Std 
20.
Oktober
13,4 C7,6 C
08:21
22,2 C
15:01
1018,0 hPa1016,8 hPa
00:01
1019,5 hPa
11:56
1,9 km/h
SW
19,4 km/h
14:06  
---
77 %55 %
15:01
88 %
09:16
23,8 klux48,0 klux
14:16
5:45 Std 
21.
Oktober
13,2 C8,8 C
08:57
20,4 C
15:57
1018,1 hPa1016,6 hPa
15:57
1020,0 hPa
23:58
2,1 km/h
O-SO
16,1 km/h
13:57  
---
77 %57 %
15:57
89 %
10:12
28,3 klux50,4 klux
12:57
7:50 Std 
22.
Oktober
11,4 C6,8 C
07:48
19,1 C
16:23
1021,8 hPa1020,0 hPa
00:03
1024,2 hPa
23:08
2,1 km/h
SO
20,9 km/h
23:53  
---
80 %66 %
17:03
88 %
10:28
25,9 klux51,3 klux
13:33
7:00 Std 
23.
Oktober
9,5 C5,9 C
23:59
11,9 C
14:43
1025,0 hPa1023,9 hPa
17:08
1026,2 hPa
10:03
4,5 km/h
O-SO
21,0 km/h
00:08  
---
82 %76 %
15:53
86 %
02:58
8,5 klux28,2 klux
14:33
--- 
24.
Oktober
8,0 C5,5 C
03:09
10,0 C
16:19
1021,6 hPa1018,9 hPa
17:59
1024,7 hPa
01:14
0,7 km/h
W-SW
13,0 km/h
21:44  
---
88 %86 %
00:04
90 %
07:14
5,6 klux11,9 klux
14:39
--- 
25.
Oktober
9,1 C7,5 C
09:10
11,7 C
15:00
1015,9 hPa1013,5 hPa
15:00
1019,2 hPa
01:05
2,8 km/h
NW
12,3 km/h
15:25  
0,2 l/m
5 Minuten
88 %82 %
15:10
91 %
10:00
9,6 klux44,7 klux
14:55
20 Min 
26.
Oktober
5,4 C1,0 C
23:27
9,4 C
00:01
1010,0 hPa1002,5 hPa
23:17
1014,2 hPa
06:16
3,0 km/h
NO
25,8 km/h
19:51  
11,2 l/m
15:41 Stunden
87 %84 %
05:46
89 %
01:41
5,1 klux17,7 klux
11:41
--- 
27.
Oktober
0,5 C-2,9 C
23:47
3,0 C
17:37
1004,7 hPa999,3 hPa
03:42
1013,4 hPa
23:47
4,6 km/h
N-NO
22,8 km/h
15:47  
1,7 l/m
9:25 Stunden
87 %79 %
17:27
90 %
00:12
11,2 klux42,1 klux
14:32
55 Min 
28.
Oktober
-1,2 C-5,1 C
07:13
5,8 C
15:43
1016,4 hPa1012,2 hPa
21:28
1019,7 hPa
23:53
1,7 km/h
O-NO
17,6 km/h
12:48  
---
1:10 Stunden
83 %69 %
15:53
89 %
10:28
27,7 klux57,9 klux
11:58
7:40 Std 
29.
Oktober
-0,9 C-6,1 C
07:33
2,7 C
12:23
1016,2 hPa1010,7 hPa
23:25
1019,8 hPa
02:53
7,7 km/h
W-SW
25,3 km/h
15:23  
0,2 l/m
4:32 Stunden
83 %75 %
12:58
88 %
09:48
16,6 klux54,6 klux
10:33
3:00 Std 
30.
Oktober
4,2 C1,8 C
00:00
6,7 C
14:15
1006,2 hPa1004,9 hPa
14:15
1010,7 hPa
00:00
10,8 km/h
W-SW
26,6 km/h
05:45  
7,9 l/m
7:19 Stunden
89 %87 %
02:25
91 %
06:20
6,2 klux16,1 klux
13:10
--- 
31.
Oktober
4,8 C1,0 C
03:41
11,3 C
14:11
1001,6 hPa996,1 hPa
23:56
1006,5 hPa
00:56
4,3 km/h
SO
21,8 km/h
14:41  
---
81 %59 %
15:46
91 %
07:21
27,1 klux46,6 klux
12:06
8:25 Std 



Oktober
2012

Temperatur

  

Luftdruck

  

Wind

  

Regen

  

Luftfeuchte

  

Helligkeit

Sonnen-
schein

Min

Max

Min

Max

Max

Max

Min

Max

Max

Max

8,6 C

-6,1 C

07:33 Uhr
29.10.2012

22,2 C

15:01 Uhr
20.10.2012

1013,6 hPa

995,2 hPa

03:46 Uhr
15.10.2012

1026,2 hPa

10:03 Uhr
23.10.2012

7,0 km/h

SW

51,9 km/h

13:06 Uhr
04.10.2012

11,2 l/m

15:41 Stunden
26.10.2012

80 %

47 %

16:58 Uhr
01.10.2012

91 %

10:00 Uhr
25.10.2012

18,4 klux

86,3 klux

11:50 Uhr
03.10.2012

9:50 Std

am
01.10.2012

Gesamt

Gesamt

59,0 l/m

18 Tage
81:56 h

110:59 Std


Wetter-Diagramme Oktober 2012     Heinzenberg / Taunus   
TemperaturLuftfeuchte
SolarstrahlungLuftdruck
HelligkeitSonnenschein
RegenmengeRegendauer
Wind-GeschwindigkeitWind-Richtung